Location: *
(60.4555°S, 133.2399°W)
Time: 12:45:05
(UTC+00:00)

Daily predictions for brighter satellites

Satellite Brightness Start Highest point End
(mag) Time Altitude Azimuth Time Altitude Azimuth Time Altitude Azimuth
Cosmos 1844 Rocket 4.4 12:18:08 29° SE 12:18:08 29° SE 12:21:55 10° ESE
ATLAS 2AS CENTAUR R/B 3.3 12:29:49 46° ESE 12:29:49 46° ESE 12:34:23 10° ESE
USA 234 4.2 12:24:00 10° ENE 12:28:09 40° NE 12:28:09 40° NE
SL-16 R/B 3.7 12:24:48 10° SSE 12:28:13 35° SSE 12:28:13 35° SSE
Cosmos 2278 Rocket 3.9 12:38:02 27° SSE 12:38:02 27° SSE 12:41:50 10° ESE
COSMOS 2455 3.7 12:47:44 44° SSE 12:47:44 44° SSE 12:51:58 10° SE
CZ-4B R/B 4.2 12:44:49 10° NE 12:48:56 44° ENE 12:48:56 44° ENE
CZ-4 R/B 4.2 12:58:19 10° E 13:00:59 16° SE 13:02:37 14° SSE
Lacrosse 5 rocket 4.0 13:04:56 16° ENE 13:04:56 16° ENE 13:06:10 10° E
H-2A R/B 3.5 13:11:48 10° SSE 13:14:57 37° SE 13:14:57 37° SE
Cosmos 2369 Rocket 3.3 13:21:50 34° S 13:21:50 34° S 13:26:06 10° SE
ATLAS CENTAUR R/B 2.7 13:22:50 45° ESE 13:22:50 45° ESE 13:26:27 10° E
Cosmos 2263 Rocket 2.4 13:25:56 67° NE 13:25:56 67° NE 13:30:52 10° NE
CZ-4B R/B 4.4 13:27:39 10° SE 13:28:24 14° SE 13:28:24 14° SE
Cosmos 2298 Rocket 4.3 13:32:40 63° SSE 13:32:59 64° SE 13:38:19 10° NE
Cosmos 2285 Rocket 4.1 13:32:31 49° SSW 13:34:24 76° SE 13:40:55 10° NE
Envisat 3.0 13:35:30 10° NNE 13:40:39 78° ESE 13:40:42 78° ESE
NOAA 12 4.3 13:36:04 10° NNE 13:41:19 68° ESE 13:43:20 38° S
Cosmos 1943 Rocket 3.3 13:43:39 30° S 13:43:39 30° S 13:48:16 10° SE
Cosmos 1844 4.5 13:42:02 38° S 13:43:28 46° SSE 13:48:56 10° ENE
Helios 1A Rocket 3.8 13:41:25 10° NE 13:45:22 49° ESE 13:45:22 49° ESE
CZ-4C R/B 2.5 13:49:50 62° WNW 13:51:09 88° SSW 13:57:23 10° ESE
NOSS 3-4 (A) 3.9 13:53:01 51° WSW 13:55:04 72° S 14:02:10 10° E
NOSS 3-4 (C) 3.9 13:53:08 51° WSW 13:55:11 71° S 14:02:17 10° E
Cosmos 1980 Rocket 3.4 13:51:55 10° N 13:57:09 40° ENE 14:02:24 10° SE
Cosmos 192 4.5 13:57:11 61° N 13:57:57 74° ENE 14:02:59 10° SE
H-2A R/B 4.1 13:54:21 10° E 13:58:19 24° SE 14:02:23 10° S
Cosmos 2369 4.2 13:56:47 26° N 13:59:58 59° ENE 14:05:37 10° SE
CORIOLIS 4.1 13:55:06 10° NNE 14:00:35 89° ESE 14:03:07 34° SSW
Cosmos 1763 Rocket 4.4 13:55:58 10° N 14:01:03 47° ENE 14:06:07 10° SE
Cosmos 1844 Rocket 3.2 13:59:47 38° SSW 14:01:49 58° SE 14:07:28 10° ENE
Okean O Rocket 3.8 13:58:52 10° N 13:59:51 16° N 13:59:51 16° N
Cosmos 2084 3.6 14:05:17 68° NE 14:05:17 68° NE 14:09:06 10° ENE
ARGOS Delta rocket 4.0 14:02:01 10° NNE 14:06:53 71° ESE 14:09:33 26° S
Cosmos 1726 Rocket 4.5 14:04:56 21° S 14:07:39 47° ESE 14:11:54 10° NE
Cosmos 1975 Rocket 4.2 14:10:30 33° S 14:10:30 33° S 14:13:05 10° S
Landsat 5 3.9 14:04:09 10° SSE 14:07:54 58° S 14:07:54 58° S
Feng Yun 1-1 Rocket 4.2 14:05:24 10° NNE 14:11:00 86° ESE 14:15:49 16° SSW
Cosmos 2026 Rocket 4.1 14:05:36 10° N 14:11:48 75° E 14:18:10 10° SSE
Cosmos 921 Rocket 3.6 14:13:10 44° S 14:13:10 44° S 14:16:18 10° SSE
SL-16 R/B 3.6 14:08:47 10° SSE 14:13:18 29° SSW 14:13:18 29° SSW
USA 234 3.7 14:08:07 10° NE 14:14:20 42° NNW 14:15:30 39° WNW
Cosmos 468 Rocket 4.4 14:10:22 15° NNW 14:14:40 63° ENE 14:19:52 10° SE
ATLAS 2AS CENTAUR R/B 2.6 14:17:14 45° WSW 14:19:13 69° S 14:25:54 10° E
Cosmos 2278 4.2 14:14:09 10° NNW 14:19:45 59° ENE 14:25:23 10° SE
Resurs 01 Rocket 4.4 14:18:23 10° SE 14:19:46 11° SE 14:21:10 10° SSE
ERS-2 4.2 14:17:12 10° SSE 14:18:28 20° S 14:18:28 20° S
SL-16 R/B 4.5 14:17:38 10° NNE 14:22:08 25° ENE 14:26:42 10° SE
Cosmos 2278 Rocket 3.3 14:19:52 25° SSW 14:22:24 37° SSE 14:27:43 10° E
FengYun 1-2 T 4.2 14:18:27 10° NNE 14:24:07 89° W 14:29:44 11° SSW
Cosmos 1697 Rocket 2.7 14:21:07 28° NNW 14:24:17 81° NE 14:30:02 10° SE
Cosmos 1092 Rocket 3.9 14:18:29 10° NNW 14:24:44 78° WSW 14:31:01 10° SSE
Cosmos 372 Rocket 3.9 14:25:27 56° W 14:25:45 58° WNW 14:30:48 10° NNE
Radarsat Rocket 4.4 14:21:48 10° N 14:28:28 46° W 14:30:16 37° WSW
Cosmos 1417 Rocket 4.4 14:22:41 10° SSW 14:29:00 78° W 14:35:18 10° N
SMAP 3.4 14:24:39 10° N 14:28:33 48° NW 14:28:33 48° NW
CZ-4B R/B 3.6 14:25:41 10° N 14:30:51 44° WNW 14:30:51 44° WNW
Cosmos 2150 Rocket 4.0 14:30:01 43° SW 14:31:46 69° WNW 14:37:07 10° NNE
Cosmos 2228 3.0 14:29:37 29° S 14:31:51 83° ESE 14:36:11 10° NNE
Cosmos 1939 Rocket 3.4 14:28:09 10° NNE 14:32:15 62° ESE 14:35:12 19° S
COSMOS 2455 3.4 14:30:52 35° SW 14:32:45 45° S 14:38:34 10° ESE
Cosmos 1125 Rocket 3.4 14:30:26 35° SSW 14:32:46 88° WNW 14:38:04 10° NNE
ADEOS Rocket 3.7 14:28:06 10° SSE 14:33:34 49° E 14:38:57 10° N
Cosmos 1707 2.7 14:34:42 68° SW 14:34:42 68° SW 14:38:26 10° SSE
CZ-4 R/B 2.0 14:31:03 10° NE 14:35:16 60° ESE 14:38:38 16° S
Cosmos 1689 Rocket 3.1 14:32:30 10° SSE 14:35:31 49° ENE 14:38:31 10° N
Nadezhda 4 Rocket 4.1 14:34:26 31° WNW 14:37:10 51° WSW 14:43:16 10° S
Cosmos 1656 3.7 14:35:25 41° WNW 14:37:21 65° SW 14:43:07 10° SE
Okean-O 2.7 14:33:19 10° NNE 14:37:50 79° ESE 14:41:07 19° SSW
Cosmos 1626 4.4 14:37:10 10° NNE 14:40:22 26° E 14:43:38 10° SSE
Lacrosse 5 rocket 2.0 14:40:34 38° NNW 14:41:30 46° NNE 14:45:30 10° E
Cosmos 1908 3.2 14:42:05 63° WNW 14:42:05 63° WNW 14:45:46 10° N
Meteor 2-13 Rocket 4.4 14:40:04 10° NNW 14:46:16 74° WSW 14:52:33 10° SSE
Cosmos 1300 3.1 14:44:41 19° S 14:47:26 63° ESE 14:51:18 10° NNE
Cosmos 1655 Rocket 4.4 14:41:37 10° N 14:47:49 66° E 14:54:06 10° SSE
CZ-2D R/B 3.5 14:44:26 10° NNE 14:48:22 71° ESE 14:51:16 18° S
Cosmos 1025 Rocket 2.9 14:46:10 18° NNW 14:49:18 63° WSW 14:53:40 10° S
COSMO-SKYMED 1 3.9 14:46:18 10° SSE 14:50:34 43° E 14:54:47 10° N
Meteor 1-16 Rocket 4.5 14:47:05 17° SSW 14:51:23 48° W 14:56:52 10° NNW
H-2A R/B 2.7 14:47:56 10° S 14:52:03 39° SW 14:52:03 39° SW
ASTEX 1 3.3 14:47:28 10° N 14:52:26 78° W 14:57:30 10° S
CZ-4 R/B 4.4 14:50:50 10° NNE 14:55:02 82° WNW 14:57:55 20° SSW
Cosmos 2360 4.2 14:51:48 12° NW 14:57:14 87° SW 15:03:02 10° SE
Meteor 2-8 Rocket 4.5 14:52:07 10° SSW 14:58:08 55° W 15:04:07 10° N
Meteor 1-21 4.4 14:53:29 14° NW 14:58:18 49° WSW 15:03:54 10° SSE
SAR-Lupe-4 3.6 14:56:12 10° SSE 14:59:51 56° WSW 15:00:45 42° WNW
RESURS DK-1 3.9 14:59:02 21° SSW 14:59:55 23° S 15:03:20 10° SE
ATLAS CENTAUR R/B 1.8 14:59:01 38° WSW 15:00:44 64° NW 15:05:35 10° NE
Cosmos 1455 4.2 14:57:32 10° S 15:00:55 27° ESE 15:04:14 10° ENE
Meteor 2-5 Rocket 4.4 14:55:54 10° N 15:01:21 55° E 15:06:51 10° SSE
Aureole 3 3.8 14:56:33 10° SSW 15:01:53 58° W 15:06:01 10° N
Cosmos 2315 Rocket 4.0 14:55:31 10° SSW 15:01:55 86° ESE 15:08:13 10° NNE
IRS-1C Rocket 4.2 14:56:45 10° N 15:01:57 53° WNW 15:06:16 15° SSW
Cosmos 2322 Rocket 3.9 14:56:52 10° N 15:02:02 36° ENE 15:07:14 10° SE
CZ-4B R/B 2.4 14:59:39 10° S 15:01:37 30° SSW 15:01:37 30° SSW
Cosmos 1553 Rocket 4.2 14:58:50 10° SSW 15:05:03 48° W 15:11:10 10° NNW
Cosmos 1356 Rocket 3.3 15:02:45 21° SSW 15:05:28 77° WNW 15:09:40 10° N
Cosmos 2292 Rocket 4.4 14:59:57 10° N 15:05:58 67° E 15:10:29 10° SSE
Cosmos 2369 Rocket 3.4 15:03:37 21° SW 15:06:14 29° S 15:11:16 10° ESE
Cosmos 2263 Rocket 3.0 15:07:39 28° W 15:08:31 29° WNW 15:13:21 10° NNW
YAOGAN 1 2.5 15:04:53 10° NNE 15:09:18 88° WNW 15:13:35 11° SSW
Meteor 2-15 Rocket 4.4 15:03:10 10° SSW 15:09:26 77° W 15:15:39 10° N
Cosmos 2058 Rocket 3.0 15:05:39 11° SSW 15:09:55 84° W 15:14:25 10° N
Cosmos 1536 Rocket 3.7 15:05:50 10° NW 15:10:08 51° WSW 15:14:30 10° S
Cosmos 1174 4.4 15:09:28 28° SW 15:11:48 57° SSE 15:15:42 10° ENE
SAR-Lupe-1 4.4 15:12:47 10° S 15:16:15 42° WSW 15:17:47 27° WNW
Transit 2A Rocket 4.4 15:14:28 30° SW 15:16:37 88° SSE 15:21:00 10° NE
USA 267 4.2 15:11:29 10° E 15:17:51 47° NNE 15:24:11 10° NW
Cosmos 1606 Rocket 3.8 15:15:36 21° SSW 15:18:11 45° W 15:22:21 10° NNW
S3M 4.1 15:12:25 10° SSW 15:18:22 50° W 15:24:17 10° NNW
Cosmos 1674 2.6 15:15:07 10° NNW 15:18:56 72° WSW 15:22:50 10° SSE
ARGOS 3.8 15:14:24 10° NE 15:19:42 57° ESE 15:25:04 10° SSW
Envisat 3.9 15:15:57 10° NW 15:20:15 26° W 15:20:55 26° WSW
Helios 1A Rocket 3.7 15:17:03 10° NNW 15:20:48 32° W 15:21:37 29° WSW
In-Cosmos 22 4.1 15:20:52 10° NNW 15:26:18 60° WSW 15:31:41 10° SSE
USA 186 3.2 15:24:33 10° NE 15:27:01 31° ESE 15:29:42 10° S
Cosmos 1844 3.7 15:23:54 19° SW 15:27:58 70° NW 15:33:38 10° NNE
Cosmos 1943 Rocket 3.4 15:25:10 17° SW 15:28:38 31° SSE 15:33:34 10° ESE
NOAA 11 4.5 15:24:48 10° N 15:30:10 47° W 15:35:34 10° SSW
ATLAS 5 CENTAUR R/B 4.1 15:25:38 10° NNW 15:32:01 38° NE 15:37:48 10° ESE
Cosmos 2360 Rocket 4.0 15:28:08 10° N 15:33:11 34° ENE 15:38:15 10° SE
Terra 4.3 15:31:31 10° SE 15:33:14 12° SSE 15:34:56 10° SSE
Cosmos 2208 Rocket 3.9 15:29:04 10° NW 15:34:19 85° WSW 15:39:38 10° SSE
Cosmos 1814 Rocket 4.0 15:31:33 10° NNW 15:36:57 86° WSW 15:42:26 10° SSE
H-2A R/B 2.1 15:32:07 10° NNE 15:37:09 80° ESE 15:42:19 10° SSW
SKYMED 2 3.6 15:34:18 10° SSE 15:38:47 85° WSW 15:43:13 10° NNW
Cosmos-2242 4.3 15:35:53 10° S 15:40:04 40° ESE 15:44:10 10° NE
CZ-4C R/B 2.6 15:35:02 19° W 15:40:09 68° S 15:45:55 10° E
Cosmos 1980 Rocket 2.2 15:35:20 10° NW 15:40:59 67° SW 15:46:39 10° SE
Cosmos 1437 2.8 15:38:10 10° NW 15:41:10 48° WSW 15:44:13 10° S
Cosmos 1763 Rocket 3.7 15:37:44 10° WNW 15:42:55 51° SW 15:48:05 10° SSE
Cosmos 2084 4.5 15:41:50 20° W 15:43:55 30° NW 15:47:43 10° NNE
Cosmos 2369 3.9 15:38:47 10° WNW 15:44:22 51° SW 15:49:59 10° SE
Cosmos 1726 Rocket 4.2 15:42:03 14° SSW 15:45:22 33° W 15:49:18 10° NNW
Cosmos 1844 Rocket 3.0 15:41:27 17° SW 15:45:45 50° WNW 15:51:15 10° N
NOSS 3-4 (A) 3.8 15:40:27 18° WSW 15:46:28 84° NNW 15:53:18 10° ENE
NOSS 3-4 (C) 3.8 15:40:33 18° WSW 15:46:36 85° NNW 15:53:26 10° ENE
Cosmos 921 Rocket 4.4 15:49:58 18° SW 15:51:06 20° SW 15:54:21 10° SSE
FREGAT/IRIS 3.2 15:48:48 10° NE 15:51:28 49° ESE 15:54:10 10° S
Cosmos 1812 Rocket 3.7 15:47:59 10° SSW 15:52:37 85° ESE 15:57:11 10° NNE
ERS-2 4.1 15:51:47 10° SSW 15:53:05 14° SSW 15:53:05 14° SSW
Okean 1-7 Rocket 3.6 15:49:47 10° NNW 15:54:19 88° W 15:58:58 10° SSE
CZ-2C R/B 3.1 15:49:24 10° NNE 15:54:42 76° WNW 16:00:22 10° SSW
PSLV R/B 4.1 15:50:43 10° S 15:54:48 51° WSW 15:58:53 10° NW
Resurs 01 Rocket 3.2 15:51:02 10° ENE 15:55:06 33° ESE 15:59:12 10° S
SL-16 R/B 4.2 15:52:40 10° SSE 15:55:58 15° SSW 15:58:24 12° SW
Cosmos 468 Rocket 4.4 15:51:55 10° WNW 15:56:55 41° SW 16:01:54 10° SSE
Cosmos 1315 Rocket 4.3 15:57:36 10° S 16:01:20 34° ESE 16:05:01 10° NE
CSL-04 Rocket 3.9 15:56:49 10° N 16:02:10 52° W 16:07:40 10° SSW
Ariane Rocket 3.1 15:58:19 10° NNE 16:03:28 90° E 16:08:41 10° SSW
Cosmos 2278 3.9 15:58:30 10° WNW 16:04:05 51° SW 16:09:43 10° SE
KORONAS-FOTON 4.5 16:01:33 10° NW 16:05:06 33° WSW 16:08:43 10° S
Cosmos 1570 Rocket 4.2 15:59:57 10° NW 16:05:17 55° SW 16:10:39 10° SSE
SL-16 R/B 2.4 15:59:51 10° NW 16:05:35 83° NE 16:11:22 10° SE
Cosmos 540 Rocket 3.6 16:00:49 10° NW 16:05:58 57° SW 16:11:11 10° SSE
Cosmos 1689 Rocket 3.4 16:04:08 10° S 16:06:34 21° WSW 16:08:58 10° WNW
Cosmos 2278 Rocket 2.3 16:01:42 11° SW 16:07:13 83° SE 16:12:58 10° NE
Cosmos 1939 Rocket 4.0 16:04:02 10° NNW 16:07:31 25° W 16:11:04 10° SW
Cosmos 1697 Rocket 3.2 16:03:23 10° W 16:08:47 41° SSW 16:14:13 10° SE
Cosmos 2228 4.4 16:06:29 13° SW 16:08:52 19° W 16:11:58 10° NW
ATLAS 2AS CENTAUR R/B 2.7 16:04:40 14° WSW 16:10:20 77° NW 16:17:12 10° NE
CZ-4 R/B 2.5 16:06:55 10° NNW 16:10:35 27° W 16:14:19 10° SSW
HJ-1C 3.9 16:07:36 10° N 16:10:50 40° W 16:14:05 10° SSW
Cosmos 1707 4.4 16:09:54 14° WSW 16:11:02 16° SW 16:13:32 10° SSW
Cosmos 1400 Rocket 3.0 16:07:06 10° SSW 16:11:17 83° ESE 16:15:29 10° NNE
Cosmos 841 Rocket 3.7 16:06:38 10° NW 16:11:52 53° SW 16:17:08 10° SSE
Cosmos 2056 Rocket 4.4 16:08:34 10° SSW 16:13:33 42° SE 16:18:28 10° ENE
Cosmos 2333 Rocket 4.4 16:09:46 10° NNE 16:14:41 30° ENE 16:19:38 10° SE
Okean-O 3.9 16:11:17 10° NW 16:14:51 22° W 16:18:26 10° SW
Cosmos 1626 2.4 16:11:47 10° NW 16:15:28 47° WSW 16:19:12 10° S
ADEOS Rocket 3.0 16:13:51 10° SSE 16:19:13 46° WSW 16:24:30 10° NW
COSMOS 2455 3.2 16:14:01 12° SW 16:19:38 59° SSE 16:25:36 10° ENE
Cosmos 2297 4.3 16:14:36 10° SW 16:20:12 51° SE 16:25:47 10° ENE
Lacrosse 5 rocket 2.0 16:16:26 10° W 16:20:21 51° N 16:24:29 10° ENE
SL-14 R/B 3.5 16:16:59 10° NW 16:20:49 48° WSW 16:24:42 10° S
Cosmos 2098 Rocket 4.2 16:14:57 10° NNW 16:21:07 60° WSW 16:28:25 10° SSE
Meteor 2-10 Rocket 3.8 16:15:32 10° SSW 16:21:15 64° W 16:26:42 10° N
Cosmos 1300 4.0 16:19:43 10° SW 16:22:45 22° W 16:25:45 10° NW
COSMO-SKYMED 1 3.0 16:22:35 10° S 16:26:45 40° WSW 16:30:53 10° NW
Meteor 2-21 4.5 16:20:41 10° NNW 16:26:51 79° WSW 16:33:09 10° SSE
H-2A R/B 4.0 16:25:03 10° S 16:27:08 13° SW 16:29:09 10° WSW
Meteor 1-24 Rocket 3.7 16:24:28 10° NW 16:29:46 56° WSW 16:35:07 10° SSE
Aureole 2 Rocket 3.5 16:27:57 10° SSW 16:30:57 33° SE 16:33:48 10° ENE
Cosmos 1818 4.1 16:28:04 10° NW 16:33:26 65° NE 16:38:50 10° ESE
Cosmos 1655 Rocket 4.5 16:28:06 10° NW 16:33:56 38° WSW 16:39:51 10° S
CZ-4B R/B 3.4 16:34:06 10° SW 16:34:27 10° SW 16:34:47 10° SW
Cosmos 1455 2.5 16:33:00 10° SSW 16:36:46 49° W 16:40:27 10° N
Cosmos 1892 Rocket 4.1 16:33:05 10° NW 16:37:18 38° WSW 16:41:33 10° S
ATLAS CENTAUR R/B 3.3 16:35:31 10° WSW 16:39:03 20° WNW 16:42:34 10° NNW
RESURS DK-1 3.6 16:35:14 10° SW 16:39:03 31° SSE 16:42:52 10° E
Geosat 4.1 16:34:36 10° NE 16:39:42 82° SE 16:44:49 10° SW
Cosmos 2266 Rocket 4.4 16:35:11 10° NW 16:41:07 42° WSW 16:47:01 10° S
MetOp-A 4.2 16:38:12 10° NNE 16:43:38 76° WNW 16:49:08 10° SSW
Nadezhda 1 Rocket 4.0 16:37:36 10° SSW 16:43:43 66° W 16:49:48 10° N
Meteor 2-5 Rocket 4.1 16:39:44 10° NW 16:45:00 41° WSW 16:50:21 10° S
Cosmos 2322 Rocket 2.2 16:40:01 10° NW 16:45:48 74° SW 16:51:36 10° SE
YAOGAN 1 4.1 16:42:57 10° NW 16:46:03 18° W 16:49:11 10° SW
Cosmos 1626 Rocket 3.6 16:44:04 10° NNW 16:48:25 63° WSW 16:52:51 10° S
SJ-6B 3.1 16:47:06 10° N 16:50:48 48° W 16:54:34 10° SSW
Cosmos 2369 Rocket 3.0 16:46:07 10° SW 16:51:39 43° SSE 16:57:08 10° E
CZ-2C R/B 3.6 16:46:53 10° SSE 16:52:21 55° E 16:57:50 10° N
